McCall, ID

11:38 AM MDT on August 28, 2015 (GMT -0600)
McCall | | Change Station
CLOSE
Current Station
Airport
Location: McCall,
Elevation: 5020 ft
Nearby Weather Stations
Active Advisory: Special Statement

Elev 5020 ft 44.89 °N, 116.10 °W | Updated 8 minutes ago

Haze
Haze
71 °F
Feels Like 71 °F
N
4
Wind Variable Wind from Variable

Today
High -- | Low -- °F
--% Chance of Precip.
Yesterday
High -- | Low -- °F
Precip. -- in
7:01 AM 8:28 PM
Waxing Gibbous, 98% visible
Pressure 30.15 in
Visibility 3.0 miles
Clouds Clear
Dew Point 39 °F
Humidity 31%
Rainfall 0.00 in
Snow Depth Not available.
UV 7 out of 12
Pollen 8.70 out of 12
Air Quality Not available.
Flu Activity Not available.
SPECI KMYL 281730Z AUTO VRB03KT 3SM HZ CLR 22/04 A3015 RMK AO2 T02170039
Pressure 30.15 in
Visibility 3.0 miles
Clouds Clear
Dew Point 39 °F
Humidity 31%
Rainfall 0.00 in
Snow Depth Not available.
UV 7 out of 12
Pollen 8.70 out of 12
Air Quality Not available.
Flu Activity Not available.
SPECI KMYL 281730Z AUTO VRB03KT 3SM HZ CLR 22/04 A3015 RMK AO2 T02170039

10-Day Weather Forecast

×

Almanac

Astronomy

Aug. 28, 2015 Rise Set
Actual Time
Civil Twilight
Nautical Twilight
Astronomical Twilight
Moon
Length of Visible Light
Length of Day
Tomorrow will be .
, % of the Moon is Illuminated

Today's Extremes

State Highs State Lows

Community

WunderPhotos

Upload Photos

1,850,439 photos uploaded!

WunderBlogs® & News

Nearby

Air Quality

  Air Quality AQ Index Pollutant
Not available.

Snow Depth

Station Depth Elevation

Earthquake Activity

City Distance Mag. Time & Date
Minimum magnitude displayed is 2.5.

Coastal Water Temperatures

Place Temperature

Stations

Nearby Weather Stations

Station Location Temp. Windchill Dew Point Humidity Wind Precip. Elev Updated Type
                   
Special Statement
Statement as of 3:01 AM PDT on August 28, 2015

... Locally breezy Saturday...

A cold front will bring locally breezy southwest to west winds to
southwest Idaho Saturday. The strongest winds of 20 mph with gusts
to 30 mph are expected Saturday afternoon and evening.



401 am MDT Fri Aug 28 2015 /301 am PDT Fri Aug 28 2015/

... Locally breezy Saturday...

A cold front will bring locally breezy southwest to west winds to
southwest Idaho Saturday. The strongest winds of 20 mph with gusts
to 30 mph are expected Saturday afternoon and evening.